owner,sensor,date,latitude,longitude,vertical_datum,wind_speed,wind_to_direction,wind_speed_of_gust,qcFlag 
WAVCIS,ioos:station:WAVCIS:CSI06:1,2008-04-01T00:00:00Z,28.8667,-90.4833,10.0,8.0,241.0,,'11111222,11111222,99999999' 
WAVCIS,ioos:station:WAVCIS:CSI06:1,2008-04-01T01:00:00Z,28.8667,-90.4833,10.0,7.45,241.0,,'11111222,11111222,99999999' 
WAVCIS,ioos:station:WAVCIS:CSI06:1,2008-04-01T02:00:00Z,28.8667,-90.4833,10.0,7.55,236.0,,'11111222,11111222,99999999' 
WAVCIS,ioos:station:WAVCIS:CSI06:1,2008-04-01T03:00:00Z,28.8667,-90.4833,10.0,7.45,228.0,,'11111222,11111222,99999999' 
WAVCIS,ioos:station:WAVCIS:CSI06:1,2008-04-01T04:00:00Z,28.8667,-90.4833,10.0,5.995,222.0,,'11111222,11111222,99999999' 
WAVCIS,ioos:station:WAVCIS:CSI06:1,2008-04-01T05:00:00Z,28.8667,-90.4833,10.0,5.98,220.0,,'11111222,11111222,99999999' 
WAVCIS,ioos:station:WAVCIS:CSI06:1,2008-04-01T06:00:00Z,28.8667,-90.4833,10.0,6.766,228.0,,'11111222,11111222,99999999' 
WAVCIS,ioos:station:WAVCIS:CSI06:1,2008-04-01T07:00:00Z,28.8667,-90.4833,10.0,4.108,233.0,,'11111222,11111222,99999999' 
WAVCIS,ioos:station:WAVCIS:CSI06:1,2008-04-01T08:00:00Z,28.8667,-90.4833,10.0,4.742,275.0,,'11111222,11111222,99999999' 
WAVCIS,ioos:station:WAVCIS:CSI06:1,2008-04-01T09:00:00Z,28.8667,-90.4833,10.0,6.29,252.0,,'11111222,11111222,99999999' 
WAVCIS,ioos:station:WAVCIS:CSI06:1,2008-04-01T10:00:00Z,28.8667,-90.4833,10.0,6.383,244.0,,'11111222,11111222,99999999' 
WAVCIS,ioos:station:WAVCIS:CSI06:1,2008-04-01T11:00:00Z,28.8667,-90.4833,10.0,5.732,263.0,,'11111222,11111222,99999999' 
WAVCIS,ioos:station:WAVCIS:CSI06:1,2008-04-01T12:00:00Z,28.8667,-90.4833,10.0,6.289,261.0,,'11111222,11111222,99999999' 
WAVCIS,ioos:station:WAVCIS:CSI06:1,2008-04-01T13:00:00Z,28.8667,-90.4833,10.0,6.697,246.0,,'11111222,11111222,99999999' 
WAVCIS,ioos:station:WAVCIS:CSI06:1,2008-04-01T14:00:00Z,28.8667,-90.4833,10.0,7.85,233.0,,'11111222,11111222,99999999' 
WAVCIS,ioos:station:WAVCIS:CSI06:1,2008-04-01T15:00:00Z,28.8667,-90.4833,10.0,6.423,231.0,,'11111222,11111222,99999999' 
WAVCIS,ioos:station:WAVCIS:CSI06:1,2008-04-01T16:00:00Z,28.8667,-90.4833,10.0,8.2,207.0,,'11111222,11111222,99999999' 
WAVCIS,ioos:station:WAVCIS:CSI06:1,2008-04-01T17:00:00Z,28.8667,-90.4833,10.0,6.234,204.0,,'11111222,11111222,99999999' 
WAVCIS,ioos:station:WAVCIS:CSI06:1,2008-04-01T18:00:00Z,28.8667,-90.4833,10.0,5.114,187.0,,'11111222,11111222,99999999' 
WAVCIS,ioos:station:WAVCIS:CSI06:1,2008-04-01T19:00:00Z,28.8667,-90.4833,10.0,3.285,182.0,,'11111222,11111222,99999999' 
WAVCIS,ioos:station:WAVCIS:CSI06:1,2008-04-01T20:00:00Z,28.8667,-90.4833,10.0,1.966,186.0,,'11111222,11111222,99999999' 
WAVCIS,ioos:station:WAVCIS:CSI06:1,2008-04-01T21:00:00Z,28.8667,-90.4833,10.0,2.796,179.0,,'11111222,11111222,99999999' 
WAVCIS,ioos:station:WAVCIS:CSI06:1,2008-04-01T22:00:00Z,28.8667,-90.4833,10.0,1.076,202.0,,'11111222,11111222,99999999' 
WAVCIS,ioos:station:WAVCIS:CSI06:1,2008-04-01T23:00:00Z,28.8667,-90.4833,10.0,1.39,231.0,,'11111222,11111222,99999999' 
WAVCIS,ioos:station:WAVCIS:CSI06:1,2008-04-02T00:00:00Z,28.8667,-90.4833,10.0,1.482,244.0,,'11111222,11111222,99999999' 
WAVCIS,ioos:station:WAVCIS:CSI06:1,2008-04-02T01:00:00Z,28.8667,-90.4833,10.0,3.116,263.0,,'11111222,11111222,99999999' 
WAVCIS,ioos:station:WAVCIS:CSI06:1,2008-04-02T02:00:00Z,28.8667,-90.4833,10.0,4.365,261.0,,'11111222,11111222,99999999' 
WAVCIS,ioos:station:WAVCIS:CSI06:1,2008-04-02T03:00:00Z,28.8667,-90.4833,10.0,5.303,253.0,,'11111222,11111222,99999999' 
WAVCIS,ioos:station:WAVCIS:CSI06:1,2008-04-02T04:00:00Z,28.8667,-90.4833,10.0,3.609,247.0,,'11111222,11111222,99999999' 
WAVCIS,ioos:station:WAVCIS:CSI06:1,2008-04-02T05:00:00Z,28.8667,-90.4833,10.0,4.559,256.0,,'11111222,11111222,99999999' 
WAVCIS,ioos:station:WAVCIS:CSI06:1,2008-04-02T06:00:00Z,28.8667,-90.4833,10.0,3.938,213.0,,'11111222,11111222,99999999' 
WAVCIS,ioos:station:WAVCIS:CSI06:1,2008-04-02T07:00:00Z,28.8667,-90.4833,10.0,5.931,217.0,,'11111222,11111222,99999999' 
WAVCIS,ioos:station:WAVCIS:CSI06:1,2008-04-02T08:00:00Z,28.8667,-90.4833,10.0,6.101,225.0,,'11111222,11111222,99999999' 
WAVCIS,ioos:station:WAVCIS:CSI06:1,2008-04-02T09:00:00Z,28.8667,-90.4833,10.0,4.853,222.0,,'11111222,11111222,99999999' 
WAVCIS,ioos:station:WAVCIS:CSI06:1,2008-04-02T10:00:00Z,28.8667,-90.4833,10.0,3.694,229.0,,'11111222,11111222,99999999' 
WAVCIS,ioos:station:WAVCIS:CSI06:1,2008-04-02T11:00:00Z,28.8667,-90.4833,10.0,4.029,254.0,,'11111222,11111222,99999999' 
WAVCIS,ioos:station:WAVCIS:CSI06:1,2008-04-02T12:00:00Z,28.8667,-90.4833,10.0,3.215,250.0,,'11111222,11111222,99999999' 
WAVCIS,ioos:station:WAVCIS:CSI06:1,2008-04-02T13:00:00Z,28.8667,-90.4833,10.0,3.176,238.0,,'11111222,11111222,99999999' 
WAVCIS,ioos:station:WAVCIS:CSI06:1,2008-04-02T14:00:00Z,28.8667,-90.4833,10.0,3.076,224.0,,'11111222,11111222,99999999' 
WAVCIS,ioos:station:WAVCIS:CSI06:1,2008-04-02T15:00:00Z,28.8667,-90.4833,10.0,4.429,242.0,,'11111222,11111222,99999999' 
WAVCIS,ioos:station:WAVCIS:CSI06:1,2008-04-02T16:00:00Z,28.8667,-90.4833,10.0,3.894,232.0,,'11111222,11111222,99999999' 
WAVCIS,ioos:station:WAVCIS:CSI06:1,2008-04-02T17:00:00Z,28.8667,-90.4833,10.0,3.685,259.0,,'11111222,11111222,99999999' 
WAVCIS,ioos:station:WAVCIS:CSI06:1,2008-04-02T18:00:00Z,28.8667,-90.4833,10.0,3.785,268.0,,'11111222,11111222,99999999' 
WAVCIS,ioos:station:WAVCIS:CSI06:1,2008-04-02T19:00:00Z,28.8667,-90.4833,10.0,2.77,265.0,,'11111222,11111222,99999999' 
WAVCIS,ioos:station:WAVCIS:CSI06:1,2008-04-02T20:00:00Z,28.8667,-90.4833,10.0,4.07,253.0,,'11111222,11111222,99999999' 
WAVCIS,ioos:station:WAVCIS:CSI06:1,2008-04-02T21:00:00Z,28.8667,-90.4833,10.0,4.781,246.0,,'11111222,11111222,99999999' 
WAVCIS,ioos:station:WAVCIS:CSI06:1,2008-04-02T22:00:00Z,28.8667,-90.4833,10.0,3.5,246.0,,'11111222,11111222,99999999' 
WAVCIS,ioos:station:WAVCIS:CSI06:1,2008-04-03T01:00:00Z,28.8667,-90.4833,10.0,6.253,237.0,,'11111222,11111222,99999999' 
WAVCIS,ioos:station:WAVCIS:CSI06:1,2008-04-03T04:00:00Z,28.8667,-90.4833,10.0,4.491,238.0,,'11111222,11111222,99999999' 
WAVCIS,ioos:station:WAVCIS:CSI06:1,2008-04-03T07:00:00Z,28.8667,-90.4833,10.0,4.249,236.0,,'11111222,11111222,99999999' 
WAVCIS,ioos:station:WAVCIS:CSI06:1,2008-04-03T10:00:00Z,28.8667,-90.4833,10.0,4.524,232.0,,'11111222,11111222,99999999' 
WAVCIS,ioos:station:WAVCIS:CSI06:1,2008-04-03T11:00:00Z,28.8667,-90.4833,10.0,4.554,234.0,,'11111222,11111222,99999999' 
WAVCIS,ioos:station:WAVCIS:CSI06:1,2008-04-03T14:00:00Z,28.8667,-90.4833,10.0,6.204,224.0,,'11111222,11111222,99999999' 
WAVCIS,ioos:station:WAVCIS:CSI06:1,2008-04-03T15:00:00Z,28.8667,-90.4833,10.0,6.259,219.0,,'11111222,11111222,99999999' 
WAVCIS,ioos:station:WAVCIS:CSI06:1,2008-04-03T16:00:00Z,28.8667,-90.4833,10.0,5.449,214.0,,'11111222,11111222,99999999' 
WAVCIS,ioos:station:WAVCIS:CSI06:1,2008-04-03T19:00:00Z,28.8667,-90.4833,10.0,5.128,220.0,,'11111222,11111222,99999999' 
WAVCIS,ioos:station:WAVCIS:CSI06:1,2008-04-03T21:00:00Z,28.8667,-90.4833,10.0,3.987,201.0,,'11111222,11111222,99999999' 
WAVCIS,ioos:station:WAVCIS:CSI06:1,2008-04-03T22:00:00Z,28.8667,-90.4833,10.0,4.133,207.0,,'11111222,11111222,99999999' 
WAVCIS,ioos:station:WAVCIS:CSI06:1,2008-04-03T23:00:00Z,28.8667,-90.4833,10.0,5.429,215.0,,'11111222,11111222,99999999' 
WAVCIS,ioos:station:WAVCIS:CSI06:1,2008-04-04T00:00:00Z,28.8667,-90.4833,10.0,5.462,214.0,,'11111222,11111222,99999999' 
WAVCIS,ioos:station:WAVCIS:CSI06:1,2008-04-04T01:00:00Z,28.8667,-90.4833,10.0,6.401,212.0,,'11111222,11111222,99999999' 
WAVCIS,ioos:station:WAVCIS:CSI06:1,2008-04-04T04:00:00Z,28.8667,-90.4833,10.0,7.0,209.0,,'11111222,11111222,99999999' 
WAVCIS,ioos:station:WAVCIS:CSI06:1,2008-04-04T07:00:00Z,28.8667,-90.4833,10.0,9.58,200.0,,'11111222,11111222,99999999' 
WAVCIS,ioos:station:WAVCIS:CSI06:1,2008-04-04T10:00:00Z,28.8667,-90.4833,10.0,7.68,193.0,,'11111222,11111222,99999999' 
WAVCIS,ioos:station:WAVCIS:CSI06:1,2008-04-04T11:00:00Z,28.8667,-90.4833,10.0,7.87,202.0,,'11111222,11111222,99999999' 
WAVCIS,ioos:station:WAVCIS:CSI06:1,2008-04-04T14:00:00Z,28.8667,-90.4833,10.0,7.46,179.0,,'11111222,11111222,99999999' 
WAVCIS,ioos:station:WAVCIS:CSI06:1,2008-04-04T15:00:00Z,28.8667,-90.4833,10.0,6.653,177.0,,'11111222,11111222,99999999' 
WAVCIS,ioos:station:WAVCIS:CSI06:1,2008-04-04T16:00:00Z,28.8667,-90.4833,10.0,7.03,178.0,,'11111222,11111222,99999999' 
WAVCIS,ioos:station:WAVCIS:CSI06:1,2008-04-04T17:00:00Z,28.8667,-90.4833,10.0,8.65,183.0,,'11111222,11111222,99999999' 
WAVCIS,ioos:station:WAVCIS:CSI06:1,2008-04-04T18:00:00Z,28.8667,-90.4833,10.0,7.08,182.0,,'11111222,11111222,99999999' 
WAVCIS,ioos:station:WAVCIS:CSI06:1,2008-04-04T19:00:00Z,28.8667,-90.4833,10.0,7.93,174.0,,'11111222,11111222,99999999' 
WAVCIS,ioos:station:WAVCIS:CSI06:1,2008-04-04T20:00:00Z,28.8667,-90.4833,10.0,7.28,174.0,,'11111222,11111222,99999999' 
WAVCIS,ioos:station:WAVCIS:CSI06:1,2008-04-04T21:00:00Z,28.8667,-90.4833,10.0,7.41,175.0,,'11111222,11111222,99999999' 
WAVCIS,ioos:station:WAVCIS:CSI06:1,2008-04-04T22:00:00Z,28.8667,-90.4833,10.0,7.39,177.0,,'11111222,11111222,99999999' 
WAVCIS,ioos:station:WAVCIS:CSI06:1,2008-04-04T23:00:00Z,28.8667,-90.4833,10.0,5.417,146.0,,'11111222,11111222,99999999' 
WAVCIS,ioos:station:WAVCIS:CSI06:1,2008-04-05T00:00:00Z,28.8667,-90.4833,10.0,7.2,162.0,,'11111222,11111222,99999999' 
WAVCIS,ioos:station:WAVCIS:CSI06:1,2008-04-05T01:00:00Z,28.8667,-90.4833,10.0,6.94,165.0,,'11111222,11111222,99999999' 
WAVCIS,ioos:station:WAVCIS:CSI06:1,2008-04-05T02:00:00Z,28.8667,-90.4833,10.0,9.42,177.0,,'11111222,11111222,99999999' 
WAVCIS,ioos:station:WAVCIS:CSI06:1,2008-04-05T03:00:00Z,28.8667,-90.4833,10.0,8.39,159.0,,'11111222,11111222,99999999' 
WAVCIS,ioos:station:WAVCIS:CSI06:1,2008-04-05T04:00:00Z,28.8667,-90.4833,10.0,8.1,149.0,,'11111222,11111222,99999999' 
WAVCIS,ioos:station:WAVCIS:CSI06:1,2008-04-05T05:00:00Z,28.8667,-90.4833,10.0,8.17,153.0,,'11111222,11111222,99999999' 
WAVCIS,ioos:station:WAVCIS:CSI06:1,2008-04-05T06:00:00Z,28.8667,-90.4833,10.0,9.88,160.0,,'11111222,11111222,99999999' 
WAVCIS,ioos:station:WAVCIS:CSI06:1,2008-04-05T07:00:00Z,28.8667,-90.4833,10.0,9.49,159.0,,'11111222,11111222,99999999' 
WAVCIS,ioos:station:WAVCIS:CSI06:1,2008-04-05T08:00:00Z,28.8667,-90.4833,10.0,9.02,141.0,,'11111222,11111222,99999999' 
WAVCIS,ioos:station:WAVCIS:CSI06:1,2008-04-05T09:00:00Z,28.8667,-90.4833,10.0,9.56,128.0,,'11111222,11111222,99999999' 
WAVCIS,ioos:station:WAVCIS:CSI06:1,2008-04-05T10:00:00Z,28.8667,-90.4833,10.0,9.4,117.0,,'11111222,11111222,99999999' 
WAVCIS,ioos:station:WAVCIS:CSI06:1,2008-04-05T11:00:00Z,28.8667,-90.4833,10.0,10.47,113.0,,'11111222,11111222,99999999' 
WAVCIS,ioos:station:WAVCIS:CSI06:1,2008-04-05T12:00:00Z,28.8667,-90.4833,10.0,9.66,119.0,,'11111222,11111222,99999999' 
WAVCIS,ioos:station:WAVCIS:CSI06:1,2008-04-05T13:00:00Z,28.8667,-90.4833,10.0,10.02,95.0,,'11111222,11111222,99999999' 
WAVCIS,ioos:station:WAVCIS:CSI06:1,2008-04-05T14:00:00Z,28.8667,-90.4833,10.0,8.88,26.0,,'11111222,11111222,99999999' 
WAVCIS,ioos:station:WAVCIS:CSI06:1,2008-04-05T15:00:00Z,28.8667,-90.4833,10.0,7.75,19.0,,'11111222,11111222,99999999' 
WAVCIS,ioos:station:WAVCIS:CSI06:1,2008-04-05T16:00:00Z,28.8667,-90.4833,10.0,4.368,4.0,,'11111222,11111222,99999999' 
WAVCIS,ioos:station:WAVCIS:CSI06:1,2008-04-05T17:00:00Z,28.8667,-90.4833,10.0,3.314,346.0,,'11111222,11111222,99999999' 
WAVCIS,ioos:station:WAVCIS:CSI06:1,2008-04-05T18:00:00Z,28.8667,-90.4833,10.0,3.301,11.0,,'11111222,11111222,99999999' 
WAVCIS,ioos:station:WAVCIS:CSI06:1,2008-04-05T20:00:00Z,28.8667,-90.4833,10.0,4.429,7.0,,'11111222,11111222,99999999' 
WAVCIS,ioos:station:WAVCIS:CSI06:1,2008-04-05T21:00:00Z,28.8667,-90.4833,10.0,4.636,17.0,,'11111222,11111222,99999999' 
WAVCIS,ioos:station:WAVCIS:CSI06:1,2008-04-05T22:00:00Z,28.8667,-90.4833,10.0,3.919,346.0,,'11111222,11111222,99999999' 
WAVCIS,ioos:station:WAVCIS:CSI06:1,2008-04-05T23:00:00Z,28.8667,-90.4833,10.0,3.707,309.0,,'11111222,11111222,99999999' 
WAVCIS,ioos:station:WAVCIS:CSI06:1,2008-04-06T00:00:00Z,28.8667,-90.4833,10.0,5.737,282.0,,'11111222,11111222,99999999' 
WAVCIS,ioos:station:WAVCIS:CSI06:1,2008-04-06T01:00:00Z,28.8667,-90.4833,10.0,7.16,306.0,,'11111222,11111222,99999999' 
WAVCIS,ioos:station:WAVCIS:CSI06:1,2008-04-06T02:00:00Z,28.8667,-90.4833,10.0,4.538,322.0,,'11111222,11111222,99999999' 
WAVCIS,ioos:station:WAVCIS:CSI06:1,2008-04-06T03:00:00Z,28.8667,-90.4833,10.0,4.41,310.0,,'11111222,11111222,99999999' 
WAVCIS,ioos:station:WAVCIS:CSI06:1,2008-04-06T04:00:00Z,28.8667,-90.4833,10.0,4.057,308.0,,'11111222,11111222,99999999' 
WAVCIS,ioos:station:WAVCIS:CSI06:1,2008-04-06T05:00:00Z,28.8667,-90.4833,10.0,5.391,292.0,,'11111222,11111222,99999999' 
WAVCIS,ioos:station:WAVCIS:CSI06:1,2008-04-06T06:00:00Z,28.8667,-90.4833,10.0,5.66,273.0,,'11111222,11111222,99999999' 
WAVCIS,ioos:station:WAVCIS:CSI06:1,2008-04-06T07:00:00Z,28.8667,-90.4833,10.0,6.763,248.0,,'11111222,11111222,99999999' 
WAVCIS,ioos:station:WAVCIS:CSI06:1,2008-04-06T08:00:00Z,28.8667,-90.4833,10.0,6.335,255.0,,'11111222,11111222,99999999' 
WAVCIS,ioos:station:WAVCIS:CSI06:1,2008-04-06T09:00:00Z,28.8667,-90.4833,10.0,6.196,302.0,,'11111222,11111222,99999999' 
WAVCIS,ioos:station:WAVCIS:CSI06:1,2008-04-06T10:00:00Z,28.8667,-90.4833,10.0,6.13,296.0,,'11111222,11111222,99999999' 
WAVCIS,ioos:station:WAVCIS:CSI06:1,2008-04-06T11:00:00Z,28.8667,-90.4833,10.0,5.754,291.0,,'11111222,11111222,99999999' 
WAVCIS,ioos:station:WAVCIS:CSI06:1,2008-04-06T12:00:00Z,28.8667,-90.4833,10.0,6.474,295.0,,'11111222,11111222,99999999' 
WAVCIS,ioos:station:WAVCIS:CSI06:1,2008-04-06T13:00:00Z,28.8667,-90.4833,10.0,6.419,323.0,,'11111222,11111222,99999999' 
WAVCIS,ioos:station:WAVCIS:CSI06:1,2008-04-06T14:00:00Z,28.8667,-90.4833,10.0,5.907,310.0,,'11111222,11111222,99999999' 
WAVCIS,ioos:station:WAVCIS:CSI06:1,2008-04-06T15:00:00Z,28.8667,-90.4833,10.0,7.45,290.0,,'11111222,11111222,99999999' 
WAVCIS,ioos:station:WAVCIS:CSI06:1,2008-04-06T16:00:00Z,28.8667,-90.4833,10.0,9.2,289.0,,'11111222,11111222,99999999' 
WAVCIS,ioos:station:WAVCIS:CSI06:1,2008-04-06T17:00:00Z,28.8667,-90.4833,10.0,8.87,280.0,,'11111222,11111222,99999999' 
WAVCIS,ioos:station:WAVCIS:CSI06:1,2008-04-06T18:00:00Z,28.8667,-90.4833,10.0,8.69,285.0,,'11111222,11111222,99999999' 
WAVCIS,ioos:station:WAVCIS:CSI06:1,2008-04-06T19:00:00Z,28.8667,-90.4833,10.0,8.59,288.0,,'11111222,11111222,99999999' 
WAVCIS,ioos:station:WAVCIS:CSI06:1,2008-04-06T20:00:00Z,28.8667,-90.4833,10.0,9.73,286.0,,'11111222,11111222,99999999' 
WAVCIS,ioos:station:WAVCIS:CSI06:1,2008-04-06T21:00:00Z,28.8667,-90.4833,10.0,8.35,289.0,,'11111222,11111222,99999999' 
WAVCIS,ioos:station:WAVCIS:CSI06:1,2008-04-06T22:00:00Z,28.8667,-90.4833,10.0,8.89,271.0,,'11111222,11111222,99999999' 
WAVCIS,ioos:station:WAVCIS:CSI06:1,2008-04-06T23:00:00Z,28.8667,-90.4833,10.0,7.67,265.0,,'11111222,11111222,99999999' 
WAVCIS,ioos:station:WAVCIS:CSI06:1,2008-04-07T00:00:00Z,28.8667,-90.4833,10.0,7.18,255.0,,'11111222,11111222,99999999' 
WAVCIS,ioos:station:WAVCIS:CSI06:1,2008-04-07T01:00:00Z,28.8667,-90.4833,10.0,4.737,253.0,,'11111222,11111222,99999999' 
WAVCIS,ioos:station:WAVCIS:CSI06:1,2008-04-07T02:00:00Z,28.8667,-90.4833,10.0,3.756,280.0,,'11111222,11111222,99999999' 
WAVCIS,ioos:station:WAVCIS:CSI06:1,2008-04-07T03:00:00Z,28.8667,-90.4833,10.0,3.803,278.0,,'11111222,11111222,99999999' 
WAVCIS,ioos:station:WAVCIS:CSI06:1,2008-04-07T04:00:00Z,28.8667,-90.4833,10.0,3.743,262.0,,'11111222,11111222,99999999' 
WAVCIS,ioos:station:WAVCIS:CSI06:1,2008-04-07T05:00:00Z,28.8667,-90.4833,10.0,3.999,260.0,,'11111222,11111222,99999999' 
WAVCIS,ioos:station:WAVCIS:CSI06:1,2008-04-07T06:00:00Z,28.8667,-90.4833,10.0,3.957,275.0,,'11111222,11111222,99999999' 
WAVCIS,ioos:station:WAVCIS:CSI06:1,2008-04-07T07:00:00Z,28.8667,-90.4833,10.0,3.421,282.0,,'11111222,11111222,99999999' 
WAVCIS,ioos:station:WAVCIS:CSI06:1,2008-04-07T08:00:00Z,28.8667,-90.4833,10.0,3.393,263.0,,'11111222,11111222,99999999' 
WAVCIS,ioos:station:WAVCIS:CSI06:1,2008-04-07T09:00:00Z,28.8667,-90.4833,10.0,5.203,266.0,,'11111222,11111222,99999999' 
WAVCIS,ioos:station:WAVCIS:CSI06:1,2008-04-07T10:00:00Z,28.8667,-90.4833,10.0,4.649,268.0,,'11111222,11111222,99999999' 
WAVCIS,ioos:station:WAVCIS:CSI06:1,2008-04-07T11:00:00Z,28.8667,-90.4833,10.0,5.291,270.0,,'11111222,11111222,99999999' 
WAVCIS,ioos:station:WAVCIS:CSI06:1,2008-04-07T12:00:00Z,28.8667,-90.4833,10.0,5.303,274.0,,'11111222,11111222,99999999' 
WAVCIS,ioos:station:WAVCIS:CSI06:1,2008-04-07T13:00:00Z,28.8667,-90.4833,10.0,7.12,279.0,,'11111222,11111222,99999999' 
WAVCIS,ioos:station:WAVCIS:CSI06:1,2008-04-07T14:00:00Z,28.8667,-90.4833,10.0,7.32,296.0,,'11111222,11111222,99999999' 
WAVCIS,ioos:station:WAVCIS:CSI06:1,2008-04-07T15:00:00Z,28.8667,-90.4833,10.0,9.28,293.0,,'11111222,11111222,99999999' 
WAVCIS,ioos:station:WAVCIS:CSI06:1,2008-04-07T16:00:00Z,28.8667,-90.4833,10.0,9.39,291.0,,'11111222,11111222,99999999' 
WAVCIS,ioos:station:WAVCIS:CSI06:1,2008-04-07T17:00:00Z,28.8667,-90.4833,10.0,9.19,295.0,,'11111222,11111222,99999999' 
WAVCIS,ioos:station:WAVCIS:CSI06:1,2008-04-07T18:00:00Z,28.8667,-90.4833,10.0,9.87,284.0,,'11111222,11111222,99999999' 
WAVCIS,ioos:station:WAVCIS:CSI06:1,2008-04-07T19:00:00Z,28.8667,-90.4833,10.0,9.2,283.0,,'11111222,11111222,99999999' 
WAVCIS,ioos:station:WAVCIS:CSI06:1,2008-04-07T20:00:00Z,28.8667,-90.4833,10.0,8.24,279.0,,'11111222,11111222,99999999' 
WAVCIS,ioos:station:WAVCIS:CSI06:1,2008-04-07T21:00:00Z,28.8667,-90.4833,10.0,7.71,275.0,,'11111222,11111222,99999999' 
WAVCIS,ioos:station:WAVCIS:CSI06:1,2008-04-07T22:00:00Z,28.8667,-90.4833,10.0,7.78,274.0,,'11111222,11111222,99999999' 
WAVCIS,ioos:station:WAVCIS:CSI06:1,2008-04-07T23:00:00Z,28.8667,-90.4833,10.0,8.0,275.0,,'11111222,11111222,99999999' 
WAVCIS,ioos:station:WAVCIS:CSI06:1,2008-04-08T00:00:00Z,28.8667,-90.4833,10.0,8.43,262.0,,'11111222,11111222,99999999' 
WAVCIS,ioos:station:WAVCIS:CSI06:1,2008-04-08T01:00:00Z,28.8667,-90.4833,10.0,8.74,260.0,,'11111222,11111222,99999999' 
WAVCIS,ioos:station:WAVCIS:CSI06:1,2008-04-08T02:00:00Z,28.8667,-90.4833,10.0,9.27,267.0,,'11111222,11111222,99999999' 
WAVCIS,ioos:station:WAVCIS:CSI06:1,2008-04-08T03:00:00Z,28.8667,-90.4833,10.0,8.46,271.0,,'11111222,11111222,99999999' 
WAVCIS,ioos:station:WAVCIS:CSI06:1,2008-04-08T04:00:00Z,28.8667,-90.4833,10.0,8.22,266.0,,'11111222,11111222,99999999' 
WAVCIS,ioos:station:WAVCIS:CSI06:1,2008-04-08T05:00:00Z,28.8667,-90.4833,10.0,8.32,276.0,,'11111222,11111222,99999999' 
WAVCIS,ioos:station:WAVCIS:CSI06:1,2008-04-08T06:00:00Z,28.8667,-90.4833,10.0,7.97,252.0,,'11111222,11111222,99999999' 
WAVCIS,ioos:station:WAVCIS:CSI06:1,2008-04-08T07:00:00Z,28.8667,-90.4833,10.0,8.09,240.0,,'11111222,11111222,99999999' 
WAVCIS,ioos:station:WAVCIS:CSI06:1,2008-04-08T08:00:00Z,28.8667,-90.4833,10.0,6.765,234.0,,'11111222,11111222,99999999' 
WAVCIS,ioos:station:WAVCIS:CSI06:1,2008-04-08T09:00:00Z,28.8667,-90.4833,10.0,6.621,242.0,,'11111222,11111222,99999999' 
WAVCIS,ioos:station:WAVCIS:CSI06:1,2008-04-08T10:00:00Z,28.8667,-90.4833,10.0,6.888,251.0,,'11111222,11111222,99999999' 
WAVCIS,ioos:station:WAVCIS:CSI06:1,2008-04-08T11:00:00Z,28.8667,-90.4833,10.0,8.28,260.0,,'11111222,11111222,99999999' 
WAVCIS,ioos:station:WAVCIS:CSI06:1,2008-04-08T12:00:00Z,28.8667,-90.4833,10.0,8.7,257.0,,'11111222,11111222,99999999' 
WAVCIS,ioos:station:WAVCIS:CSI06:1,2008-04-08T13:00:00Z,28.8667,-90.4833,10.0,8.76,261.0,,'11111222,11111222,99999999' 
WAVCIS,ioos:station:WAVCIS:CSI06:1,2008-04-08T14:00:00Z,28.8667,-90.4833,10.0,8.21,265.0,,'11111222,11111222,99999999' 
WAVCIS,ioos:station:WAVCIS:CSI06:1,2008-04-08T15:00:00Z,28.8667,-90.4833,10.0,7.0,272.0,,'11111222,11111222,99999999' 
WAVCIS,ioos:station:WAVCIS:CSI06:1,2008-04-08T16:00:00Z,28.8667,-90.4833,10.0,8.89,271.0,,'11111222,11111222,99999999' 
WAVCIS,ioos:station:WAVCIS:CSI06:1,2008-04-08T17:00:00Z,28.8667,-90.4833,10.0,7.55,268.0,,'11111222,11111222,99999999' 
WAVCIS,ioos:station:WAVCIS:CSI06:1,2008-04-08T18:00:00Z,28.8667,-90.4833,10.0,9.32,257.0,,'11111222,11111222,99999999' 
WAVCIS,ioos:station:WAVCIS:CSI06:1,2008-04-08T19:00:00Z,28.8667,-90.4833,10.0,9.05,257.0,,'11111222,11111222,99999999' 
WAVCIS,ioos:station:WAVCIS:CSI06:1,2008-04-08T20:00:00Z,28.8667,-90.4833,10.0,9.45,254.0,,'11111222,11111222,99999999' 
WAVCIS,ioos:station:WAVCIS:CSI06:1,2008-04-08T21:00:00Z,28.8667,-90.4833,10.0,9.53,253.0,,'11111222,11111222,99999999' 
WAVCIS,ioos:station:WAVCIS:CSI06:1,2008-04-08T22:00:00Z,28.8667,-90.4833,10.0,8.86,252.0,,'11111222,11111222,99999999' 
WAVCIS,ioos:station:WAVCIS:CSI06:1,2008-04-08T23:00:00Z,28.8667,-90.4833,10.0,8.89,253.0,,'11111222,11111222,99999999' 
WAVCIS,ioos:station:WAVCIS:CSI06:1,2008-04-09T00:00:00Z,28.8667,-90.4833,10.0,8.27,256.0,,'11111222,11111222,99999999' 
WAVCIS,ioos:station:WAVCIS:CSI06:1,2008-04-09T01:00:00Z,28.8667,-90.4833,10.0,7.86,259.0,,'11111222,11111222,99999999' 
WAVCIS,ioos:station:WAVCIS:CSI06:1,2008-04-09T02:00:00Z,28.8667,-90.4833,10.0,9.29,257.0,,'11111222,11111222,99999999' 
WAVCIS,ioos:station:WAVCIS:CSI06:1,2008-04-09T03:00:00Z,28.8667,-90.4833,10.0,10.09,261.0,,'11111222,11111222,99999999' 
WAVCIS,ioos:station:WAVCIS:CSI06:1,2008-04-09T04:00:00Z,28.8667,-90.4833,10.0,11.18,256.0,,'11111222,11111222,99999999' 
WAVCIS,ioos:station:WAVCIS:CSI06:1,2008-04-09T05:00:00Z,28.8667,-90.4833,10.0,10.99,259.0,,'11111222,11111222,99999999' 
WAVCIS,ioos:station:WAVCIS:CSI06:1,2008-04-09T06:00:00Z,28.8667,-90.4833,10.0,10.74,255.0,,'11111222,11111222,99999999' 
WAVCIS,ioos:station:WAVCIS:CSI06:1,2008-04-09T07:00:00Z,28.8667,-90.4833,10.0,10.08,254.0,,'11111222,11111222,99999999' 
WAVCIS,ioos:station:WAVCIS:CSI06:1,2008-04-09T08:00:00Z,28.8667,-90.4833,10.0,10.59,254.0,,'11111222,11111222,99999999' 
WAVCIS,ioos:station:WAVCIS:CSI06:1,2008-04-09T09:00:00Z,28.8667,-90.4833,10.0,10.06,253.0,,'11111222,11111222,99999999' 
WAVCIS,ioos:station:WAVCIS:CSI06:1,2008-04-09T10:00:00Z,28.8667,-90.4833,10.0,10.22,250.0,,'11111222,11111222,99999999' 
WAVCIS,ioos:station:WAVCIS:CSI06:1,2008-04-09T11:00:00Z,28.8667,-90.4833,10.0,10.22,254.0,,'11111222,11111222,99999999' 
WAVCIS,ioos:station:WAVCIS:CSI06:1,2008-04-09T12:00:00Z,28.8667,-90.4833,10.0,10.45,254.0,,'11111222,11111222,99999999' 
WAVCIS,ioos:station:WAVCIS:CSI06:1,2008-04-09T13:00:00Z,28.8667,-90.4833,10.0,10.09,254.0,,'11111222,11111222,99999999' 
WAVCIS,ioos:station:WAVCIS:CSI06:1,2008-04-09T14:00:00Z,28.8667,-90.4833,10.0,10.0,252.0,,'11111222,11111222,99999999' 
WAVCIS,ioos:station:WAVCIS:CSI06:1,2008-04-09T15:00:00Z,28.8667,-90.4833,10.0,10.13,250.0,,'11111222,11111222,99999999' 
WAVCIS,ioos:station:WAVCIS:CSI06:1,2008-04-09T16:00:00Z,28.8667,-90.4833,10.0,9.58,246.0,,'11111222,11111222,99999999' 
WAVCIS,ioos:station:WAVCIS:CSI06:1,2008-04-09T17:00:00Z,28.8667,-90.4833,10.0,8.73,245.0,,'11111222,11111222,99999999' 
WAVCIS,ioos:station:WAVCIS:CSI06:1,2008-04-09T18:00:00Z,28.8667,-90.4833,10.0,8.62,245.0,,'11111222,11111222,99999999' 
WAVCIS,ioos:station:WAVCIS:CSI06:1,2008-04-09T19:00:00Z,28.8667,-90.4833,10.0,8.03,246.0,,'11111222,11111222,99999999' 
WAVCIS,ioos:station:WAVCIS:CSI06:1,2008-04-09T20:00:00Z,28.8667,-90.4833,10.0,8.8,251.0,,'11111222,11111222,99999999' 
WAVCIS,ioos:station:WAVCIS:CSI06:1,2008-04-09T21:00:00Z,28.8667,-90.4833,10.0,9.35,251.0,,'11111222,11111222,99999999' 
WAVCIS,ioos:station:WAVCIS:CSI06:1,2008-04-09T22:00:00Z,28.8667,-90.4833,10.0,8.69,248.0,,'11111222,11111222,99999999' 
WAVCIS,ioos:station:WAVCIS:CSI06:1,2008-04-09T23:00:00Z,28.8667,-90.4833,10.0,9.18,249.0,,'11111222,11111222,99999999' 
WAVCIS,ioos:station:WAVCIS:CSI06:1,2008-04-10T00:00:00Z,28.8667,-90.4833,10.0,9.31,248.0,,'11111222,11111222,99999999' 
WAVCIS,ioos:station:WAVCIS:CSI06:1,2008-04-10T01:00:00Z,28.8667,-90.4833,10.0,10.16,247.0,,'11111222,11111222,99999999' 
WAVCIS,ioos:station:WAVCIS:CSI06:1,2008-04-10T02:00:00Z,28.8667,-90.4833,10.0,11.11,249.0,,'11111222,11111222,99999999' 
WAVCIS,ioos:station:WAVCIS:CSI06:1,2008-04-10T03:00:00Z,28.8667,-90.4833,10.0,11.04,246.0,,'11111222,11111222,99999999' 